contact:dominique.lefevre@mio.osupytheas.fr, maurice.libes@osupytheas.fr, didier.mallarino@osupytheas.fr
Project:EMSO http://www.emso-fr.org/EMSO-France
Depth: 2436.0 m
Title:EMSO Ligure Ouest : Data MII capteur MICROCAT
DateTime_Computer,Latitude,Longitude,Temperature,Conductivity,Pressure,DateTime_Instrument
DateTime_Computer,Latitude,Longitude,degC,S m-1,dbar,DateTime_Instrument
2021-05-22T00:01:44Z,42.805,6.029,13.2989,4.60026,2470.497,2021-5-22T02:02:56Z
2021-05-22T00:04:48Z,42.805,6.029,13.2995,4.60016,2470.46,2021-5-22T02:05:59Z
2021-05-22T00:07:51Z,42.805,6.029,13.2992,4.60030,2470.483,2021-5-22T02:09:02Z
2021-05-22T00:10:54Z,42.805,6.029,13.2992,4.60026,2470.474,2021-5-22T02:12:05Z
2021-05-22T00:13:57Z,42.805,6.029,13.2996,4.60020,2470.483,2021-5-22T02:15:09Z
2021-05-22T00:17:00Z,42.805,6.029,13.2992,4.60028,2470.46,2021-5-22T02:18:12Z
2021-05-22T00:20:03Z,42.805,6.029,13.2989,4.60016,2470.483,2021-5-22T02:21:15Z
2021-05-22T00:23:06Z,42.805,6.029,13.2988,4.60018,2470.46,2021-5-22T02:24:18Z
2021-05-22T00:26:09Z,42.805,6.029,13.2995,4.60007,2470.46,2021-5-22T02:27:21Z
2021-05-22T00:29:13Z,42.805,6.029,13.2995,4.60017,2470.507,2021-5-22T02:30:24Z
2021-05-22T00:32:16Z,42.805,6.029,13.2997,4.60015,2470.507,2021-5-22T02:33:27Z
2021-05-22T00:35:19Z,42.805,6.029,13.3000,4.60024,2470.52,2021-5-22T02:36:30Z
2021-05-22T00:38:22Z,42.805,6.029,13.2995,4.60013,2470.46,2021-5-22T02:39:33Z
2021-05-22T00:41:25Z,42.805,6.029,13.2993,4.60026,2470.497,2021-5-22T02:42:37Z
2021-05-22T00:44:28Z,42.805,6.029,13.2993,4.60016,2470.507,2021-5-22T02:45:40Z
2021-05-22T00:47:31Z,42.805,6.029,13.2994,4.60009,2470.52,2021-5-22T02:48:43Z
2021-05-22T00:50:34Z,42.805,6.029,13.2990,4.60017,2470.53,2021-5-22T02:51:46Z
2021-05-22T00:53:38Z,42.805,6.029,13.2993,4.60024,2470.507,2021-5-22T02:54:49Z
2021-05-22T00:56:41Z,42.805,6.029,13.2989,4.60021,2470.497,2021-5-22T02:57:52Z
2021-05-22T00:59:44Z,42.805,6.029,13.2991,4.60019,2470.52,2021-5-22T03:00:55Z
2021-05-22T01:02:47Z,42.805,6.029,13.2991,4.60013,2470.544,2021-5-22T03:03:59Z
2021-05-22T01:05:50Z,42.805,6.029,13.2991,4.60013,2470.544,2021-5-22T03:07:02Z
2021-05-22T01:08:53Z,42.805,6.029,13.2988,4.60004,2470.516,2021-5-22T03:10:05Z
2021-05-22T01:11:56Z,42.805,6.029,13.2993,4.60010,2470.567,2021-5-22T03:13:08Z
2021-05-22T01:14:59Z,42.805,6.029,13.2992,4.60015,2470.53,2021-5-22T03:16:11Z
2021-05-22T01:18:03Z,42.805,6.029,13.2992,4.60014,2470.52,2021-5-22T03:19:14Z
2021-05-22T01:21:06Z,42.805,6.029,13.2999,4.60019,2470.544,2021-5-22T03:22:17Z
2021-05-22T01:24:09Z,42.805,6.029,13.2995,4.60024,2470.53,2021-5-22T03:25:20Z
2021-05-22T01:27:12Z,42.805,6.029,13.2996,4.60029,2470.53,2021-5-22T03:28:23Z
2021-05-22T01:30:15Z,42.805,6.029,13.2996,4.60047,2470.553,2021-5-22T03:31:27Z
2021-05-22T01:33:18Z,42.805,6.029,13.2999,4.60049,2470.53,2021-5-22T03:34:30Z
2021-05-22T01:36:21Z,42.805,6.029,13.2995,4.60033,2470.567,2021-5-22T03:37:33Z
2021-05-22T01:39:24Z,42.805,6.029,13.3002,4.60026,2470.591,2021-5-22T03:40:36Z
2021-05-22T01:42:28Z,42.805,6.029,13.2997,4.60038,2470.553,2021-5-22T03:43:39Z
2021-05-22T01:45:31Z,42.805,6.029,13.2998,4.60022,2470.567,2021-5-22T03:46:42Z
2021-05-22T01:48:34Z,42.805,6.029,13.3014,4.60024,2470.567,2021-5-22T03:49:45Z
2021-05-22T01:51:37Z,42.805,6.029,13.3007,4.60039,2470.544,2021-5-22T03:52:48Z
2021-05-22T01:54:40Z,42.805,6.029,13.3019,4.60042,2470.553,2021-5-22T03:55:52Z
2021-05-22T01:57:43Z,42.805,6.029,13.3010,4.60057,2470.567,2021-5-22T03:58:55Z
2021-05-22T02:00:46Z,42.805,6.029,13.2993,4.60016,2470.53,2021-5-22T04:01:58Z
2021-05-22T02:03:49Z,42.805,6.029,13.2993,4.60025,2470.591,2021-5-22T04:05:01Z
2021-05-22T02:06:53Z,42.805,6.029,13.3007,4.60044,2470.577,2021-5-22T04:08:04Z
2021-05-22T02:09:56Z,42.805,6.029,13.2996,4.60013,2470.53,2021-5-22T04:11:07Z
2021-05-22T02:12:59Z,42.805,6.029,13.2996,4.60029,2470.544,2021-5-22T04:14:10Z
2021-05-22T02:16:02Z,42.805,6.029,13.3004,4.60044,2470.544,2021-5-22T04:17:13Z
2021-05-22T02:19:05Z,42.805,6.029,13.3004,4.60029,2470.591,2021-5-22T04:20:17Z
2021-05-22T02:22:08Z,42.805,6.029,13.3005,4.60048,2470.567,2021-5-22T04:23:20Z
2021-05-22T02:25:11Z,42.805,6.029,13.3014,4.60033,2470.577,2021-5-22T04:26:23Z
2021-05-22T02:28:14Z,42.805,6.029,13.3006,4.60046,2470.577,2021-5-22T04:29:26Z
2021-05-22T02:31:17Z,42.805,6.029,13.3000,4.60062,2470.544,2021-5-22T04:32:29Z
2021-05-22T02:34:21Z,42.805,6.029,13.2997,4.60027,2470.553,2021-5-22T04:35:32Z
2021-05-22T02:37:24Z,42.805,6.029,13.3013,4.60053,2470.553,2021-5-22T04:38:35Z
2021-05-22T02:40:27Z,42.805,6.029,13.3007,4.60035,2470.577,2021-5-22T04:41:38Z
2021-05-22T02:43:30Z,42.805,6.029,13.2991,4.60016,2470.567,2021-5-22T04:44:42Z
2021-05-22T02:46:33Z,42.805,6.029,13.2994,4.60015,2470.577,2021-5-22T04:47:45Z
2021-05-22T02:49:36Z,42.805,6.029,13.3016,4.60042,2470.614,2021-5-22T04:50:48Z
2021-05-22T02:52:39Z,42.805,6.029,13.2994,4.60035,2470.577,2021-5-22T04:53:51Z
2021-05-22T02:55:43Z,42.805,6.029,13.3008,4.60057,2470.553,2021-5-22T04:56:54Z
2021-05-22T02:58:46Z,42.805,6.029,13.3015,4.60054,2470.553,2021-5-22T04:59:57Z
2021-05-22T03:01:49Z,42.805,6.029,13.3000,4.60066,2470.577,2021-5-22T05:03:00Z
2021-05-22T03:04:52Z,42.805,6.029,13.2998,4.60052,2470.553,2021-5-22T05:06:03Z
2021-05-22T03:07:55Z,42.805,6.029,13.3000,4.60045,2470.577,2021-5-22T05:09:07Z
2021-05-22T03:10:58Z,42.805,6.029,13.2995,4.60044,2470.614,2021-5-22T05:12:10Z
2021-05-22T03:14:01Z,42.805,6.029,13.2996,4.60029,2470.591,2021-5-22T05:15:13Z
2021-05-22T03:17:04Z,42.805,6.029,13.2994,4.60025,2470.6,2021-5-22T05:18:16Z
2021-05-22T03:20:07Z,42.805,6.029,13.3003,4.60054,2470.614,2021-5-22T05:21:19Z
2021-05-22T03:23:11Z,42.805,6.029,13.3015,4.60040,2470.553,2021-5-22T05:24:22Z
2021-05-22T03:26:14Z,42.805,6.029,13.3001,4.60061,2470.614,2021-5-22T05:27:25Z
2021-05-22T03:29:17Z,42.805,6.029,13.3018,4.60057,2470.6,2021-5-22T05:30:28Z
2021-05-22T03:32:20Z,42.805,6.029,13.3000,4.60037,2470.577,2021-5-22T05:33:32Z
2021-05-22T03:35:23Z,42.805,6.029,13.3011,4.60049,2470.577,2021-5-22T05:36:35Z
2021-05-22T03:38:26Z,42.805,6.029,13.3020,4.60057,2470.586,2021-5-22T05:39:38Z
2021-05-22T03:41:29Z,42.805,6.029,13.3013,4.60063,2470.6,2021-5-22T05:42:41Z
2021-05-22T03:47:35Z,42.805,6.029,13.3002,4.60033,2470.577,2021-5-22T05:48:47Z
2021-05-22T03:50:39Z,42.805,6.029,13.3012,4.60051,2470.637,2021-5-22T05:51:50Z
2021-05-22T03:53:42Z,42.805,6.029,13.2996,4.60029,2470.577,2021-5-22T05:54:53Z
2021-05-22T03:56:45Z,42.805,6.029,13.2993,4.60060,2470.624,2021-5-22T05:57:56Z
2021-05-22T03:59:48Z,42.805,6.029,13.3000,4.60026,2470.577,2021-5-22T06:00:59Z
2021-05-22T04:02:51Z,42.805,6.029,13.2996,4.60034,2470.624,2021-5-22T06:04:03Z
2021-05-22T04:05:54Z,42.805,6.029,13.3003,4.60029,2470.567,2021-5-22T06:07:06Z
2021-05-22T04:08:57Z,42.805,6.029,13.2993,4.60029,2470.624,2021-5-22T06:10:09Z
2021-05-22T04:12:00Z,42.805,6.029,13.3004,4.60055,2470.577,2021-5-22T06:13:12Z
2021-05-22T04:15:03Z,42.805,6.029,13.3009,4.60014,2470.6,2021-5-22T06:16:15Z
2021-05-22T04:18:07Z,42.805,6.029,13.3011,4.60033,2470.614,2021-5-22T06:19:18Z
2021-05-22T04:21:10Z,42.805,6.029,13.3011,4.60051,2470.577,2021-5-22T06:22:21Z
2021-05-22T04:24:13Z,42.805,6.029,13.3003,4.60052,2470.6,2021-5-22T06:25:24Z
2021-05-22T04:27:16Z,42.805,6.029,13.3015,4.60049,2470.586,2021-5-22T06:28:28Z
2021-05-22T04:30:19Z,42.805,6.029,13.3012,4.60042,2470.614,2021-5-22T06:31:31Z
2021-05-22T04:33:22Z,42.805,6.029,13.3008,4.60049,2470.591,2021-5-22T06:34:34Z
2021-05-22T04:36:25Z,42.805,6.029,13.3004,4.60038,2470.577,2021-5-22T06:37:37Z
2021-05-22T04:39:29Z,42.805,6.029,13.3014,4.60016,2470.577,2021-5-22T06:40:40Z
2021-05-22T04:42:32Z,42.805,6.029,13.2996,4.60036,2470.614,2021-5-22T06:43:43Z
2021-05-22T04:45:35Z,42.805,6.029,13.3000,4.60039,2470.6,2021-5-22T06:46:46Z
2021-05-22T04:48:38Z,42.805,6.029,13.3013,4.60039,2470.577,2021-5-22T06:49:49Z
2021-05-22T04:51:41Z,42.805,6.029,13.3011,4.60058,2470.591,2021-5-22T06:52:53Z
2021-05-22T04:54:44Z,42.805,6.029,13.3010,4.60051,2470.577,2021-5-22T06:55:56Z
2021-05-22T04:57:47Z,42.805,6.029,13.3000,4.60046,2470.6,2021-5-22T06:58:59Z
2021-05-22T05:00:50Z,42.805,6.029,13.3010,4.60035,2470.6,2021-5-22T07:02:02Z
2021-05-22T05:03:53Z,42.805,6.029,13.3011,4.60035,2470.6,2021-5-22T07:05:05Z
2021-05-22T05:06:57Z,42.805,6.029,13.3005,4.60057,2470.624,2021-5-22T07:08:08Z
2021-05-22T05:10:00Z,42.805,6.029,13.3010,4.60039,2470.591,2021-5-22T07:11:11Z
2021-05-22T05:13:03Z,42.805,6.029,13.2998,4.60061,2470.591,2021-5-22T07:14:14Z
2021-05-22T05:16:06Z,42.805,6.029,13.2994,4.60033,2470.577,2021-5-22T07:17:18Z
2021-05-22T05:19:09Z,42.805,6.029,13.2996,4.60044,2470.637,2021-5-22T07:20:21Z
2021-05-22T05:22:12Z,42.805,6.029,13.3000,4.60027,2470.577,2021-5-22T07:23:24Z
2021-05-22T05:25:15Z,42.805,6.029,13.3000,4.60020,2470.553,2021-5-22T07:26:27Z
2021-05-22T05:28:18Z,42.805,6.029,13.2994,4.60049,2470.614,2021-5-22T07:29:30Z
2021-05-22T05:31:22Z,42.805,6.029,13.3013,4.60059,2470.553,2021-5-22T07:32:33Z
2021-05-22T05:34:25Z,42.805,6.029,13.3015,4.60073,2470.577,2021-5-22T07:35:36Z
2021-05-22T05:37:28Z,42.805,6.029,13.3016,4.60074,2470.591,2021-5-22T07:38:39Z
2021-05-22T05:40:31Z,42.805,6.029,13.2991,4.60029,2470.577,2021-5-22T07:41:43Z
2021-05-22T05:43:34Z,42.805,6.029,13.3003,4.60052,2470.6,2021-5-22T07:44:46Z
2021-05-22T05:46:37Z,42.805,6.029,13.3009,4.60039,2470.567,2021-5-22T07:47:49Z
2021-05-22T05:49:40Z,42.805,6.029,13.3015,4.60052,2470.591,2021-5-22T07:50:52Z
2021-05-22T05:52:43Z,42.805,6.029,13.3025,4.60075,2470.577,2021-5-22T07:53:55Z
2021-05-22T05:55:47Z,42.805,6.029,13.3029,4.60048,2470.577,2021-5-22T07:56:58Z
2021-05-22T05:58:50Z,42.805,6.029,13.2993,4.60043,2470.553,2021-5-22T08:00:01Z
2021-05-22T06:01:53Z,42.805,6.029,13.3005,4.60041,2470.553,2021-5-22T08:03:04Z
2021-05-22T06:04:56Z,42.805,6.029,13.3004,4.60059,2470.563,2021-5-22T08:06:08Z
2021-05-22T06:07:59Z,42.805,6.029,13.3015,4.60043,2470.553,2021-5-22T08:09:11Z
2021-05-22T06:11:02Z,42.805,6.029,13.3002,4.60054,2470.567,2021-5-22T08:12:14Z
2021-05-22T06:14:05Z,42.805,6.029,13.3020,4.60054,2470.53,2021-5-22T08:15:17Z
2021-05-22T06:17:08Z,42.805,6.029,13.2999,4.60046,2470.544,2021-5-22T08:18:20Z
2021-05-22T06:20:12Z,42.805,6.029,13.2991,4.60028,2470.53,2021-5-22T08:21:23Z
2021-05-22T06:23:15Z,42.805,6.029,13.2998,4.60043,2470.553,2021-5-22T08:24:26Z
2021-05-22T06:26:18Z,42.805,6.029,13.3008,4.60015,2470.52,2021-5-22T08:27:29Z
2021-05-22T06:29:21Z,42.805,6.029,13.2991,4.60014,2470.553,2021-5-22T08:30:33Z
2021-05-22T06:32:24Z,42.805,6.029,13.2998,4.60026,2470.567,2021-5-22T08:33:36Z
2021-05-22T06:35:27Z,42.805,6.029,13.3001,4.60027,2470.553,2021-5-22T08:36:39Z
2021-05-22T06:38:30Z,42.805,6.029,13.3009,4.60060,2470.553,2021-5-22T08:39:42Z
2021-05-22T06:41:33Z,42.805,6.029,13.3010,4.60057,2470.567,2021-5-22T08:42:45Z
2021-05-22T06:44:37Z,42.805,6.029,13.3015,4.60046,2470.553,2021-5-22T08:45:48Z
2021-05-22T06:47:40Z,42.805,6.029,13.3024,4.60054,2470.567,2021-5-22T08:48:51Z
2021-05-22T06:50:43Z,42.805,6.029,13.2999,4.60033,2470.544,2021-5-22T08:51:54Z
2021-05-22T06:53:46Z,42.805,6.029,13.2996,4.60041,2470.53,2021-5-22T08:54:57Z
2021-05-22T06:56:49Z,42.805,6.029,13.3014,4.60021,2470.53,2021-5-22T08:58:01Z
2021-05-22T06:59:52Z,42.805,6.029,13.3008,4.60035,2470.577,2021-5-22T09:01:04Z
2021-05-22T07:02:55Z,42.805,6.029,13.3010,4.60023,2470.516,2021-5-22T09:04:07Z
2021-05-22T07:05:58Z,42.805,6.029,13.3015,4.60038,2470.53,2021-5-22T09:07:10Z
2021-05-22T07:09:01Z,42.805,6.029,13.2997,4.60044,2470.553,2021-5-22T09:10:13Z
2021-05-22T07:12:05Z,42.805,6.029,13.3002,4.60037,2470.553,2021-5-22T09:13:16Z
2021-05-22T07:15:08Z,42.805,6.029,13.3006,4.60057,2470.507,2021-5-22T09:16:19Z
2021-05-22T07:18:11Z,42.805,6.029,13.3002,4.60031,2470.507,2021-5-22T09:19:22Z
2021-05-22T07:21:14Z,42.805,6.029,13.3005,4.60035,2470.46,2021-5-22T09:22:26Z
2021-05-22T07:24:17Z,42.805,6.029,13.2998,4.60033,2470.497,2021-5-22T09:25:29Z
2021-05-22T07:27:20Z,42.805,6.029,13.2996,4.60033,2470.507,2021-5-22T09:28:32Z
2021-05-22T07:30:23Z,42.805,6.029,13.2996,4.60051,2470.53,2021-5-22T09:31:35Z
2021-05-22T07:33:26Z,42.805,6.029,13.2992,4.60033,2470.52,2021-5-22T09:34:38Z
2021-05-22T07:36:30Z,42.805,6.029,13.3005,4.60027,2470.544,2021-5-22T09:37:41Z
2021-05-22T07:39:33Z,42.805,6.029,13.2993,4.60022,2470.507,2021-5-22T09:40:44Z
2021-05-22T07:42:36Z,42.805,6.029,13.3006,4.60040,2470.53,2021-5-22T09:43:47Z
2021-05-22T07:45:39Z,42.805,6.029,13.2998,4.60039,2470.544,2021-5-22T09:46:51Z
2021-05-22T07:48:42Z,42.805,6.029,13.2992,4.60024,2470.507,2021-5-22T09:49:54Z
2021-05-22T07:51:45Z,42.805,6.029,13.3011,4.60041,2470.46,2021-5-22T09:52:57Z
2021-05-22T07:54:48Z,42.805,6.029,13.3011,4.60033,2470.507,2021-5-22T09:56:00Z
2021-05-22T07:57:51Z,42.805,6.029,13.2998,4.60052,2470.52,2021-5-22T09:59:03Z
2021-05-22T08:00:55Z,42.805,6.029,13.2997,4.60019,2470.483,2021-5-22T10:02:06Z
2021-05-22T08:03:58Z,42.805,6.029,13.3006,4.60048,2470.507,2021-5-22T10:05:09Z
2021-05-22T08:07:01Z,42.805,6.029,13.3002,4.60044,2470.507,2021-5-22T10:08:12Z
2021-05-22T08:10:04Z,42.805,6.029,13.3004,4.60045,2470.46,2021-5-22T10:11:16Z
2021-05-22T08:13:07Z,42.805,6.029,13.2995,4.60038,2470.52,2021-5-22T10:14:19Z
2021-05-22T08:16:10Z,42.805,6.029,13.2996,4.60042,2470.46,2021-5-22T10:17:22Z
2021-05-22T08:19:13Z,42.805,6.029,13.3001,4.60046,2470.52,2021-5-22T10:20:25Z
2021-05-22T08:22:16Z,42.805,6.029,13.2994,4.60016,2470.52,2021-5-22T10:23:28Z
2021-05-22T08:25:20Z,42.805,6.029,13.3003,4.60035,2470.474,2021-5-22T10:26:31Z
2021-05-22T08:28:23Z,42.805,6.029,13.2992,4.60023,2470.483,2021-5-22T10:29:34Z
2021-05-22T08:31:26Z,42.805,6.029,13.2993,4.60023,2470.46,2021-5-22T10:32:37Z
2021-05-22T08:34:29Z,42.805,6.029,13.2996,4.60046,2470.437,2021-5-22T10:35:41Z
2021-05-22T08:37:32Z,42.805,6.029,13.2998,4.60023,2470.474,2021-5-22T10:38:44Z
2021-05-22T08:40:35Z,42.805,6.029,13.2993,4.60026,2470.497,2021-5-22T10:41:47Z
2021-05-22T08:43:38Z,42.805,6.029,13.2993,4.60027,2470.474,2021-5-22T10:44:50Z
2021-05-22T08:46:41Z,42.805,6.029,13.2990,4.60014,2470.45,2021-5-22T10:47:53Z
2021-05-22T08:49:45Z,42.805,6.029,13.2989,4.60013,2470.483,2021-5-22T10:50:56Z
2021-05-22T08:52:48Z,42.805,6.029,13.2995,4.60016,2470.46,2021-5-22T10:53:59Z
2021-05-22T08:55:51Z,42.805,6.029,13.2991,4.60020,2470.474,2021-5-22T10:57:02Z
2021-05-22T08:58:54Z,42.805,6.029,13.3002,4.60029,2470.437,2021-5-22T11:00:06Z
2021-05-22T09:01:57Z,42.805,6.029,13.2993,4.60019,2470.437,2021-5-22T11:03:09Z
2021-05-22T09:05:00Z,42.805,6.029,13.2987,4.60027,2470.437,2021-5-22T11:06:12Z
2021-05-22T09:08:03Z,42.805,6.029,13.2999,4.60026,2470.46,2021-5-22T11:09:15Z
2021-05-22T09:11:06Z,42.805,6.029,13.2998,4.60034,2470.437,2021-5-22T11:12:18Z
2021-05-22T09:14:10Z,42.805,6.029,13.2994,4.60045,2470.437,2021-5-22T11:15:21Z
2021-05-22T09:17:13Z,42.805,6.029,13.3008,4.60052,2470.474,2021-5-22T11:18:24Z
2021-05-22T09:20:16Z,42.805,6.029,13.2992,4.60024,2470.437,2021-5-22T11:21:27Z
2021-05-22T09:23:19Z,42.805,6.029,13.2996,4.60026,2470.437,2021-5-22T11:24:31Z
2021-05-22T09:26:22Z,42.805,6.029,13.2994,4.60028,2470.474,2021-5-22T11:27:34Z
2021-05-22T09:29:25Z,42.805,6.029,13.3001,4.60040,2470.46,2021-5-22T11:30:37Z
2021-05-22T09:32:28Z,42.805,6.029,13.2994,4.60024,2470.427,2021-5-22T11:33:40Z
2021-05-22T09:35:32Z,42.805,6.029,13.2999,4.60027,2470.46,2021-5-22T11:36:43Z
2021-05-22T09:38:35Z,42.805,6.029,13.2996,4.60039,2470.413,2021-5-22T11:39:46Z
2021-05-22T09:41:38Z,42.805,6.029,13.3006,4.60057,2470.413,2021-5-22T11:42:49Z
2021-05-22T09:44:41Z,42.805,6.029,13.2990,4.60039,2470.437,2021-5-22T11:45:53Z
2021-05-22T09:47:44Z,42.805,6.029,13.2996,4.60057,2470.45,2021-5-22T11:48:56Z
2021-05-22T09:50:47Z,42.805,6.029,13.2993,4.60047,2470.437,2021-5-22T11:51:59Z
2021-05-22T09:53:50Z,42.805,6.029,13.2996,4.60027,2470.427,2021-5-22T11:55:02Z
2021-05-22T09:56:53Z,42.805,6.029,13.2996,4.60020,2470.427,2021-5-22T11:58:05Z
2021-05-22T09:59:57Z,42.805,6.029,13.3001,4.60019,2470.446,2021-5-22T12:01:08Z
2021-05-22T10:03:00Z,42.805,6.029,13.2998,4.60025,2470.404,2021-5-22T12:04:11Z
2021-05-22T10:06:03Z,42.805,6.029,13.2984,4.60020,2470.39,2021-5-22T12:07:14Z
2021-05-22T10:09:06Z,42.805,6.029,13.2993,4.60036,2470.45,2021-5-22T12:10:18Z
2021-05-22T10:12:09Z,42.805,6.029,13.2988,4.60028,2470.413,2021-5-22T12:13:21Z
2021-05-22T10:15:12Z,42.805,6.029,13.2988,4.60029,2470.46,2021-5-22T12:16:24Z
2021-05-22T10:18:15Z,42.805,6.029,13.2995,4.60040,2470.39,2021-5-22T12:19:27Z
2021-05-22T10:21:18Z,42.805,6.029,13.2995,4.60033,2470.413,2021-5-22T12:22:30Z
2021-05-22T10:24:22Z,42.805,6.029,13.3003,4.60041,2470.427,2021-5-22T12:25:33Z
2021-05-22T10:27:25Z,42.805,6.029,13.2996,4.60037,2470.413,2021-5-22T12:28:36Z
2021-05-22T10:30:28Z,42.805,6.029,13.2996,4.60053,2470.39,2021-5-22T12:31:39Z
2021-05-22T10:33:31Z,42.805,6.029,13.2998,4.60032,2470.413,2021-5-22T12:34:43Z
2021-05-22T10:36:34Z,42.805,6.029,13.2990,4.60029,2470.427,2021-5-22T12:37:46Z
2021-05-22T10:39:37Z,42.805,6.029,13.2994,4.60036,2470.427,2021-5-22T12:40:49Z
2021-05-22T10:42:40Z,42.805,6.029,13.2995,4.60021,2470.437,2021-5-22T12:43:52Z
2021-05-22T10:45:43Z,42.805,6.029,13.2998,4.60025,2470.39,2021-5-22T12:46:55Z
2021-05-22T10:48:47Z,42.805,6.029,13.2993,4.60015,2470.39,2021-5-22T12:49:58Z
2021-05-22T10:51:50Z,42.805,6.029,13.2993,4.60047,2470.39,2021-5-22T12:53:01Z
2021-05-22T10:54:53Z,42.805,6.029,13.2992,4.60019,2470.404,2021-5-22T12:56:04Z
2021-05-22T10:57:56Z,42.805,6.029,13.2996,4.60047,2470.39,2021-5-22T12:59:08Z
2021-05-22T11:00:59Z,42.805,6.029,13.2991,4.60027,2470.39,2021-5-22T13:02:11Z
2021-05-22T11:04:02Z,42.805,6.029,13.3002,4.60027,2470.45,2021-5-22T13:05:14Z
2021-05-22T11:07:05Z,42.805,6.029,13.2999,4.60030,2470.413,2021-5-22T13:08:17Z
2021-05-22T11:10:09Z,42.805,6.029,13.2993,4.60033,2470.39,2021-5-22T13:11:20Z
2021-05-22T11:13:12Z,42.805,6.029,13.3000,4.60026,2470.413,2021-5-22T13:14:23Z
2021-05-22T11:16:15Z,42.805,6.029,13.3004,4.60047,2470.45,2021-5-22T13:17:26Z
2021-05-22T11:19:18Z,42.805,6.029,13.3029,4.60052,2470.413,2021-5-22T13:20:30Z
2021-05-22T11:22:21Z,42.805,6.029,13.3010,4.60034,2470.427,2021-5-22T13:23:33Z
2021-05-22T11:25:24Z,42.805,6.029,13.2993,4.60034,2470.427,2021-5-22T13:26:36Z
2021-05-22T11:28:27Z,42.805,6.029,13.2996,4.60029,2470.45,2021-5-22T13:29:39Z
2021-05-22T11:31:30Z,42.805,6.029,13.2995,4.60029,2470.39,2021-5-22T13:32:42Z
2021-05-22T11:34:34Z,42.805,6.029,13.2995,4.60025,2470.427,2021-5-22T13:35:45Z
2021-05-22T11:37:37Z,42.805,6.029,13.2996,4.60024,2470.413,2021-5-22T13:38:48Z
2021-05-22T11:40:40Z,42.805,6.029,13.2995,4.60019,2470.413,2021-5-22T13:41:51Z
2021-05-22T11:43:43Z,42.805,6.029,13.2993,4.60029,2470.46,2021-5-22T13:44:55Z
2021-05-22T11:46:46Z,42.805,6.029,13.2999,4.60029,2470.45,2021-5-22T13:47:58Z
2021-05-22T11:49:49Z,42.805,6.029,13.2995,4.60018,2470.413,2021-5-22T13:51:01Z
2021-05-22T11:52:52Z,42.805,6.029,13.2997,4.60023,2470.45,2021-5-22T13:54:04Z
2021-05-22T11:55:55Z,42.805,6.029,13.2992,4.60021,2470.437,2021-5-22T13:57:07Z
2021-05-22T11:58:59Z,42.805,6.029,13.3002,4.60069,2470.413,2021-5-22T14:00:10Z
2021-05-22T12:02:02Z,42.805,6.029,13.2997,4.60045,2470.427,2021-5-22T14:03:13Z
2021-05-22T12:05:05Z,42.805,6.029,13.3011,4.60045,2470.39,2021-5-22T14:06:16Z
2021-05-22T12:08:08Z,42.805,6.029,13.3014,4.60049,2470.437,2021-5-22T14:09:20Z
2021-05-22T12:11:11Z,42.805,6.029,13.3006,4.60045,2470.45,2021-5-22T14:12:23Z
2021-05-22T12:14:14Z,42.805,6.029,13.3006,4.60036,2470.413,2021-5-22T14:15:26Z
2021-05-22T12:17:17Z,42.805,6.029,13.3000,4.60026,2470.45,2021-5-22T14:18:29Z
2021-05-22T12:20:20Z,42.805,6.029,13.3006,4.60053,2470.437,2021-5-22T14:21:32Z
2021-05-22T12:23:24Z,42.805,6.029,13.3013,4.60039,2470.497,2021-5-22T14:24:35Z
2021-05-22T12:26:27Z,42.805,6.029,13.3021,4.60069,2470.474,2021-5-22T14:27:38Z
2021-05-22T12:29:30Z,42.805,6.029,13.2996,4.60028,2470.46,2021-5-22T14:30:41Z
2021-05-22T12:32:33Z,42.805,6.029,13.2989,4.60059,2470.437,2021-5-22T14:33:45Z
2021-05-22T12:35:36Z,42.805,6.029,13.3010,4.60054,2470.437,2021-5-22T14:36:48Z
2021-05-22T12:38:39Z,42.805,6.029,13.3004,4.60084,2470.437,2021-5-22T14:39:51Z
2021-05-22T12:41:42Z,42.805,6.029,13.3014,4.60066,2470.46,2021-5-22T14:42:54Z
2021-05-22T12:44:46Z,42.805,6.029,13.2996,4.60024,2470.45,2021-5-22T14:45:57Z
2021-05-22T12:47:49Z,42.805,6.029,13.2996,4.60018,2470.437,2021-5-22T14:49:00Z
2021-05-22T12:50:52Z,42.805,6.029,13.2998,4.60041,2470.437,2021-5-22T14:52:03Z
2021-05-22T12:53:55Z,42.805,6.029,13.3003,4.60031,2470.483,2021-5-22T14:55:06Z
2021-05-22T12:56:58Z,42.805,6.029,13.3006,4.60047,2470.497,2021-5-22T14:58:10Z
2021-05-22T13:00:01Z,42.805,6.029,13.2997,4.60041,2470.474,2021-5-22T15:01:13Z
2021-05-22T13:03:04Z,42.805,6.029,13.2998,4.60044,2470.497,2021-5-22T15:04:16Z
2021-05-22T13:06:07Z,42.805,6.029,13.3001,4.60049,2470.474,2021-5-22T15:07:19Z
2021-05-22T13:09:11Z,42.805,6.029,13.2998,4.60051,2470.497,2021-5-22T15:10:22Z
2021-05-22T13:12:14Z,42.805,6.029,13.3007,4.60060,2470.483,2021-5-22T15:13:25Z
2021-05-22T13:15:17Z,42.805,6.029,13.3000,4.60049,2470.483,2021-5-22T15:16:28Z
2021-05-22T13:18:20Z,42.805,6.029,13.3008,4.60062,2470.474,2021-5-22T15:19:32Z
2021-05-22T13:21:23Z,42.805,6.029,13.2994,4.60030,2470.483,2021-5-22T15:22:35Z
2021-05-22T13:24:26Z,42.805,6.029,13.2998,4.60029,2470.507,2021-5-22T15:25:38Z
2021-05-22T13:27:29Z,42.805,6.029,13.3005,4.60031,2470.483,2021-5-22T15:28:41Z
2021-05-22T13:30:32Z,42.805,6.029,13.2992,4.60036,2470.52,2021-5-22T15:31:44Z
2021-05-22T13:33:36Z,42.805,6.029,13.2992,4.60034,2470.483,2021-5-22T15:34:47Z
2021-05-22T13:36:39Z,42.805,6.029,13.3000,4.60052,2470.46,2021-5-22T15:37:50Z
2021-05-22T13:39:42Z,42.805,6.029,13.3011,4.60011,2470.483,2021-5-22T15:40:53Z
2021-05-22T13:42:45Z,42.805,6.029,13.3002,4.60019,2470.52,2021-5-22T15:43:57Z
2021-05-22T13:45:48Z,42.805,6.029,13.2995,4.60021,2470.483,2021-5-22T15:47:00Z
2021-05-22T13:48:51Z,42.805,6.029,13.2994,4.60024,2470.483,2021-5-22T15:50:03Z
2021-05-22T13:51:54Z,42.805,6.029,13.3002,4.60023,2470.507,2021-5-22T15:53:06Z
2021-05-22T13:54:57Z,42.805,6.029,13.2993,4.60031,2470.474,2021-5-22T15:56:09Z
2021-05-22T13:58:01Z,42.805,6.029,13.2990,4.60029,2470.52,2021-5-22T15:59:12Z
2021-05-22T14:01:04Z,42.805,6.029,13.2993,4.60015,2470.507,2021-5-22T16:02:15Z
2021-05-22T14:04:07Z,42.805,6.029,13.2993,4.60027,2470.567,2021-5-22T16:05:18Z
2021-05-22T14:07:10Z,42.805,6.029,13.2991,4.60035,2470.507,2021-5-22T16:08:22Z
2021-05-22T14:10:13Z,42.805,6.029,13.2997,4.60023,2470.507,2021-5-22T16:11:25Z
2021-05-22T14:13:16Z,42.805,6.029,13.2993,4.60034,2470.483,2021-5-22T16:14:28Z
2021-05-22T14:16:19Z,42.805,6.029,13.2999,4.60049,2470.507,2021-5-22T16:17:31Z
2021-05-22T14:19:22Z,42.805,6.029,13.2994,4.60027,2470.53,2021-5-22T16:20:34Z
2021-05-22T14:22:26Z,42.805,6.029,13.2998,4.60017,2470.507,2021-5-22T16:23:37Z
2021-05-22T14:25:29Z,42.805,6.029,13.3000,4.60029,2470.507,2021-5-22T16:26:40Z
2021-05-22T14:28:32Z,42.805,6.029,13.3014,4.60042,2470.483,2021-5-22T16:29:43Z
2021-05-22T14:31:35Z,42.805,6.029,13.3003,4.60046,2470.483,2021-5-22T16:32:47Z
2021-05-22T14:34:38Z,42.805,6.029,13.2997,4.60041,2470.507,2021-5-22T16:35:50Z
2021-05-22T14:37:41Z,42.805,6.029,13.2995,4.60031,2470.544,2021-5-22T16:38:53Z
2021-05-22T14:40:44Z,42.805,6.029,13.3002,4.60026,2470.52,2021-5-22T16:41:56Z
2021-05-22T14:43:47Z,42.805,6.029,13.2992,4.60029,2470.53,2021-5-22T16:44:59Z
2021-05-22T14:46:51Z,42.805,6.029,13.2990,4.60024,2470.46,2021-5-22T16:48:02Z
2021-05-22T14:49:54Z,42.805,6.029,13.2990,4.60016,2470.507,2021-5-22T16:51:05Z
2021-05-22T14:52:57Z,42.805,6.029,13.2991,4.60016,2470.544,2021-5-22T16:54:08Z
2021-05-22T14:56:00Z,42.805,6.029,13.2991,4.60011,2470.483,2021-5-22T16:57:12Z
2021-05-22T14:59:03Z,42.805,6.029,13.2999,4.60011,2470.52,2021-5-22T17:00:15Z
2021-05-22T15:02:06Z,42.805,6.029,13.2996,4.60011,2470.53,2021-5-22T17:03:18Z
2021-05-22T15:05:09Z,42.805,6.029,13.2993,4.60022,2470.567,2021-5-22T17:06:21Z
2021-05-22T15:08:12Z,42.805,6.029,13.2996,4.60024,2470.497,2021-5-22T17:09:24Z
2021-05-22T15:11:16Z,42.805,6.029,13.2997,4.60015,2470.507,2021-5-22T17:12:27Z
2021-05-22T15:14:19Z,42.805,6.029,13.2991,4.60029,2470.52,2021-5-22T17:15:30Z
2021-05-22T15:17:22Z,42.805,6.029,13.2994,4.60026,2470.52,2021-5-22T17:18:33Z